CFG2FA EDDP-HEGN

Flight info

Callsign CFG2FA
Flight time 3h 55m
Altitude 35000
Route DRN2S/26L EDDP/26L DRN Z21 OMELO DCT GOLOP DCT ODNEM DCT XOMBA DCT KEROP DCT ESIRI DCT NISVA DCT NIKTI UN127 IMR UG80 BANRO UN128 RDS UL995 VANZA DCT RASDA A16 CVO L315 OBTAV DCT SOKOT SOKOT1A
Aircraft A320/M-SDE3FGHIRWY/LB1

Departure

Time 2026-05-05 11:07
Airport Leipzig/Halle Airport (EDDP)

Arrival

Time 2026-05-05 15:02
Airport Hurghada International Airport (HEGN)
Time Latitude Longitude Altitude Speed Heading
2026-05-05 11:06 51.42684 12.53105 8814 ft 292 kts 86°
2026-05-05 11:07 51.42623 12.56350 9640 ft 296 kts 104°
2026-05-05 11:07 51.41868 12.59370 10411 ft 298 kts 122°
2026-05-05 11:07 51.40738 12.62242 10918 ft 314 kts 125°
2026-05-05 11:07 51.39510 12.65227 11341 ft 331 kts 126°
2026-05-05 11:08 51.38218 12.68385 11720 ft 350 kts 126°
2026-05-05 11:08 51.36869 12.71727 12264 ft 361 kts 125°
2026-05-05 11:08 51.35515 12.75108 13002 ft 365 kts 125°
2026-05-05 11:08 51.34158 12.78511 13685 ft 365 kts 125°
2026-05-05 11:09 51.32788 12.81949 14150 ft 370 kts 125°
2026-05-05 11:09 51.31409 12.85403 14617 ft 373 kts 125°
2026-05-05 11:09 51.30009 12.88908 15083 ft 376 kts 126°
2026-05-05 11:09 51.28591 12.92454 15570 ft 378 kts 126°
2026-05-05 11:10 51.27183 12.95972 16032 ft 381 kts 126°
2026-05-05 11:10 51.25751 12.99547 16476 ft 384 kts 126°
2026-05-05 11:10 51.24311 13.03135 16905 ft 387 kts 126°
2026-05-05 11:10 51.22864 13.06731 17335 ft 389 kts 126°
2026-05-05 11:11 51.21399 13.10372 17748 ft 391 kts 126°
2026-05-05 11:11 51.19917 13.14047 18171 ft 394 kts 126°
2026-05-05 11:11 51.18439 13.17707 18581 ft 396 kts 126°
2026-05-05 11:11 51.16953 13.21381 18977 ft 398 kts 126°
2026-05-05 11:12 51.15470 13.25093 19364 ft 400 kts 125°
2026-05-05 11:12 51.13977 13.28854 19733 ft 403 kts 125°
2026-05-05 11:12 51.12476 13.32634 20104 ft 406 kts 125°
2026-05-05 11:12 51.10972 13.36406 20462 ft 408 kts 125°
2026-05-05 11:13 51.09446 13.40233 20826 ft 410 kts 125°
2026-05-05 11:13 51.07921 13.44046 21179 ft 412 kts 125°
2026-05-05 11:13 51.06385 13.47884 21538 ft 415 kts 125°
2026-05-05 11:13 51.04816 13.51800 21878 ft 417 kts 125°
2026-05-05 11:14 51.03256 13.55679 22202 ft 419 kts 125°
2026-05-05 11:14 51.01696 13.59555 22529 ft 421 kts 125°
2026-05-05 11:14 51.00131 13.63472 22852 ft 424 kts 124°
2026-05-05 11:14 50.98534 13.67502 23163 ft 426 kts 126°
2026-05-05 11:15 50.96976 13.71432 23462 ft 428 kts 126°
2026-05-05 11:15 50.95369 13.75470 23754 ft 430 kts 126°
2026-05-05 11:15 50.93766 13.79449 24075 ft 431 kts 127°
2026-05-05 11:15 50.92042 13.83306 24385 ft 431 kts 130°
2026-05-05 11:16 50.90207 13.87065 24678 ft 433 kts 131°
2026-05-05 11:16 50.88336 13.90871 24961 ft 435 kts 131°
2026-05-05 11:16 50.86469 13.94660 25222 ft 437 kts 131°
2026-05-05 11:16 50.84621 13.98407 25497 ft 439 kts 131°
2026-05-05 11:17 50.82731 14.02218 25765 ft 440 kts 131°
2026-05-05 11:17 50.80821 14.06000 26028 ft 442 kts 131°
2026-05-05 11:17 50.78897 14.09790 26274 ft 444 kts 131°
2026-05-05 11:17 50.76965 14.13592 26512 ft 446 kts 131°
2026-05-05 11:18 50.75019 14.17418 26772 ft 447 kts 131°
2026-05-05 11:18 50.73064 14.21264 27002 ft 449 kts 131°
2026-05-05 11:18 50.71094 14.25131 27218 ft 451 kts 131°
2026-05-05 11:18 50.69135 14.28972 27441 ft 453 kts 131°
2026-05-05 11:19 50.67155 14.32851 27675 ft 454 kts 131°
2026-05-05 11:19 50.65163 14.36748 27882 ft 456 kts 131°
2026-05-05 11:19 50.63182 14.40614 28078 ft 457 kts 131°
2026-05-05 11:19 50.61196 14.44481 28292 ft 459 kts 131°
2026-05-05 11:20 50.59170 14.48374 28488 ft 460 kts 133°
2026-05-05 11:20 50.57056 14.52059 28680 ft 460 kts 136°
2026-05-05 11:20 50.54818 14.55697 28862 ft 461 kts 136°
2026-05-05 11:20 50.52602 14.59288 29062 ft 462 kts 136°
2026-05-05 11:21 50.50368 14.62906 29302 ft 461 kts 136°
2026-05-05 11:21 50.48148 14.66496 29559 ft 460 kts 137°
2026-05-05 11:21 50.45902 14.70122 29811 ft 460 kts 137°
2026-05-05 11:21 50.43665 14.73730 30028 ft 460 kts 137°
2026-05-05 11:22 50.41461 14.77282 30232 ft 460 kts 137°
2026-05-05 11:22 50.39224 14.80882 30441 ft 460 kts 137°
2026-05-05 11:22 50.36986 14.84475 30652 ft 460 kts 137°
2026-05-05 11:22 50.34756 14.88053 30867 ft 459 kts 137°
2026-05-05 11:23 50.32552 14.91585 31091 ft 459 kts 137°
2026-05-05 11:23 50.30306 14.95176 31311 ft 458 kts 137°
2026-05-05 11:23 50.28102 14.98695 31523 ft 458 kts 136°
2026-05-05 11:23 50.25849 15.02286 31727 ft 457 kts 136°
2026-05-05 11:24 50.23654 15.05780 31928 ft 457 kts 136°
2026-05-05 11:24 50.21411 15.09349 32133 ft 456 kts 136°
2026-05-05 11:24 50.19218 15.12836 32336 ft 456 kts 136°
2026-05-05 11:24 50.16983 15.16382 32532 ft 455 kts 136°
2026-05-05 11:25 50.14792 15.19852 32706 ft 455 kts 137°
2026-05-05 11:25 50.12557 15.23386 32897 ft 454 kts 137°
2026-05-05 11:25 50.10367 15.26847 33061 ft 454 kts 137°
2026-05-05 11:25 50.08149 15.30345 33194 ft 455 kts 137°
2026-05-05 11:26 50.05923 15.33850 33308 ft 455 kts 137°
2026-05-05 11:26 50.03720 15.37312 33437 ft 456 kts 137°
2026-05-05 11:26 50.01486 15.40817 33560 ft 456 kts 137°
2026-05-05 11:26 49.99258 15.44312 33673 ft 456 kts 137°
2026-05-05 11:27 49.97018 15.47819 33777 ft 457 kts 136°
2026-05-05 11:27 49.94771 15.51333 33883 ft 458 kts 136°
2026-05-05 11:27 49.92535 15.54825 33987 ft 458 kts 136°
2026-05-05 11:28 49.88037 15.61837 34180 ft 459 kts 136°
2026-05-05 11:28 49.83536 15.68832 34357 ft 459 kts 137°
2026-05-05 11:29 49.79053 15.75779 34540 ft 460 kts 137°
2026-05-05 11:29 49.74532 15.82768 34678 ft 460 kts 137°
2026-05-05 11:30 49.69989 15.89768 34808 ft 461 kts 137°
2026-05-05 11:30 49.65460 15.96726 34813 ft 461 kts 137°
2026-05-05 11:31 49.60931 16.03666 34812 ft 460 kts 137°
2026-05-05 11:31 49.56401 16.10591 34819 ft 460 kts 137°
2026-05-05 11:32 49.51872 16.17495 34823 ft 460 kts 137°
2026-05-05 11:32 49.47344 16.24377 34827 ft 459 kts 137°
2026-05-05 11:33 49.42818 16.31238 34824 ft 459 kts 137°
2026-05-05 11:33 49.38276 16.38101 34840 ft 459 kts 137°
2026-05-05 11:34 49.33751 16.44922 34834 ft 458 kts 137°
2026-05-05 11:34 49.29228 16.51722 34837 ft 458 kts 137°
2026-05-05 11:35 49.24676 16.58548 34836 ft 458 kts 137°
2026-05-05 11:35 49.20141 16.65330 34834 ft 458 kts 138°
2026-05-05 11:36 49.15567 16.72152 34833 ft 458 kts 138°
2026-05-05 11:36 49.11016 16.78918 34834 ft 458 kts 138°
2026-05-05 11:37 49.06466 16.85666 34835 ft 458 kts 138°
2026-05-05 11:37 49.02356 16.91746 34820 ft 458 kts 138°
2026-05-05 11:38 48.97760 16.98530 34832 ft 458 kts 137°
2026-05-05 11:38 48.93196 17.05249 34830 ft 458 kts 138°
2026-05-05 11:39 48.88565 17.11894 34838 ft 457 kts 141°
2026-05-05 11:39 48.83588 17.17763 34837 ft 455 kts 147°
2026-05-05 11:40 48.78200 17.22732 34845 ft 453 kts 153°
2026-05-05 11:40 48.72721 17.27271 34845 ft 453 kts 153°
2026-05-05 11:41 48.67215 17.31838 34853 ft 452 kts 153°
2026-05-05 11:41 48.61711 17.36394 34848 ft 452 kts 153°
2026-05-05 11:42 48.56198 17.40949 34850 ft 452 kts 153°
2026-05-05 11:42 48.50685 17.45492 34851 ft 452 kts 153°
2026-05-05 11:43 48.45181 17.50015 34856 ft 452 kts 153°
2026-05-05 11:43 48.39694 17.54513 34848 ft 452 kts 153°
2026-05-05 11:44 48.34196 17.59009 34853 ft 452 kts 153°
2026-05-05 11:44 48.28645 17.63538 34856 ft 452 kts 153°
2026-05-05 11:45 48.23105 17.68048 34856 ft 452 kts 153°
2026-05-05 11:45 48.17614 17.72505 34862 ft 451 kts 153°
2026-05-05 11:46 48.12115 17.76957 34877 ft 451 kts 153°
2026-05-05 11:46 48.06597 17.81414 34884 ft 451 kts 153°
2026-05-05 11:47 48.01090 17.85852 34873 ft 451 kts 153°
2026-05-05 11:47 47.95576 17.90286 34876 ft 452 kts 153°
2026-05-05 11:48 47.87249 17.96961 34883 ft 453 kts 153°
2026-05-05 11:48 47.81734 18.01368 34886 ft 453 kts 153°
2026-05-05 11:49 47.76257 18.05882 34895 ft 453 kts 150°
2026-05-05 11:49 47.71062 18.11144 34894 ft 453 kts 146°
2026-05-05 11:50 47.65947 18.16650 34900 ft 453 kts 146°
2026-05-05 11:50 47.60864 18.22102 34915 ft 453 kts 146°
2026-05-05 11:51 47.55764 18.27559 34914 ft 454 kts 145°
2026-05-05 11:51 47.50657 18.33011 34924 ft 455 kts 146°
2026-05-05 11:52 47.45545 18.38454 34925 ft 455 kts 146°
2026-05-05 11:52 47.40414 18.43904 34931 ft 454 kts 146°
2026-05-05 11:53 47.35302 18.49322 34927 ft 454 kts 146°
2026-05-05 11:53 47.30203 18.54710 34932 ft 453 kts 146°
2026-05-05 11:54 47.25094 18.60097 34934 ft 453 kts 146°
2026-05-05 11:54 47.19984 18.65471 34931 ft 454 kts 146°
2026-05-05 11:55 47.14829 18.70880 34930 ft 454 kts 146°
2026-05-05 11:55 47.09737 18.76212 34933 ft 454 kts 146°
2026-05-05 11:56 47.04601 18.81577 34933 ft 454 kts 146°
2026-05-05 11:56 46.99455 18.86936 34930 ft 453 kts 146°
2026-05-05 11:57 46.94334 18.92257 34925 ft 453 kts 146°
2026-05-05 11:57 46.89186 18.97594 34928 ft 453 kts 146°
2026-05-05 11:58 46.84080 19.02875 34929 ft 453 kts 146°
2026-05-05 11:58 46.78914 19.08205 34926 ft 454 kts 146°
2026-05-05 11:59 46.73783 19.13487 34931 ft 455 kts 146°
2026-05-05 11:59 46.68588 19.18825 34931 ft 456 kts 146°
2026-05-05 12:00 46.63438 19.24101 34934 ft 456 kts 146°
2026-05-05 12:00 46.58249 19.29403 34934 ft 457 kts 146°
2026-05-05 12:01 46.53071 19.34681 34935 ft 457 kts 146°
2026-05-05 12:01 46.47869 19.39972 34938 ft 458 kts 146°
2026-05-05 12:02 46.42665 19.45252 34941 ft 458 kts 146°
2026-05-05 12:02 46.37435 19.50550 34948 ft 458 kts 146°
2026-05-05 12:03 46.32229 19.55810 34957 ft 459 kts 146°
2026-05-05 12:03 46.26987 19.61091 34957 ft 459 kts 146°
2026-05-05 12:04 46.21784 19.66321 34956 ft 459 kts 147°
2026-05-05 12:04 46.16530 19.71576 34955 ft 460 kts 147°
2026-05-05 12:05 46.11259 19.76769 34956 ft 460 kts 147°
2026-05-05 12:05 46.05993 19.81943 34959 ft 460 kts 147°
2026-05-05 12:06 46.00721 19.87117 34962 ft 461 kts 147°
2026-05-05 12:06 45.95417 19.92310 34958 ft 461 kts 147°
2026-05-05 12:07 45.90141 19.97465 34948 ft 462 kts 147°
2026-05-05 12:07 45.84801 20.02675 34946 ft 462 kts 147°
2026-05-05 12:08 45.79506 20.07825 34949 ft 462 kts 147°
2026-05-05 12:08 45.74193 20.12982 34952 ft 462 kts 147°
2026-05-05 12:09 45.68887 20.18119 34952 ft 463 kts 147°
2026-05-05 12:09 45.63573 20.23252 34951 ft 463 kts 147°
2026-05-05 12:10 45.58239 20.28393 34953 ft 464 kts 147°
2026-05-05 12:10 45.52876 20.33550 34953 ft 465 kts 147°
2026-05-05 12:11 45.47527 20.38682 34956 ft 466 kts 147°
2026-05-05 12:11 45.42186 20.43793 34955 ft 465 kts 147°
2026-05-05 12:12 45.36790 20.48944 34959 ft 466 kts 147°
2026-05-05 12:12 45.31442 20.54039 34957 ft 466 kts 147°
2026-05-05 12:13 45.26056 20.59155 34956 ft 467 kts 146°
2026-05-05 12:13 45.20691 20.64242 34958 ft 467 kts 146°
2026-05-05 12:14 45.15276 20.69366 34956 ft 468 kts 147°
2026-05-05 12:14 45.09854 20.74483 34960 ft 469 kts 147°
2026-05-05 12:15 45.04459 20.79562 34961 ft 468 kts 147°
2026-05-05 12:15 44.99056 20.84639 34963 ft 469 kts 147°
2026-05-05 12:16 44.93626 20.89729 34965 ft 470 kts 147°
2026-05-05 12:16 44.88176 20.94823 34965 ft 470 kts 147°
2026-05-05 12:17 44.82751 20.99884 34958 ft 470 kts 147°
2026-05-05 12:17 44.77291 21.04968 34958 ft 471 kts 147°
2026-05-05 12:18 44.71856 21.10017 34960 ft 471 kts 147°
2026-05-05 12:18 44.66402 21.15070 34962 ft 472 kts 147°
2026-05-05 12:19 44.60921 21.20137 34968 ft 473 kts 147°
2026-05-05 12:19 44.55448 21.25185 34978 ft 473 kts 147°
2026-05-05 12:20 44.49949 21.30246 34989 ft 474 kts 147°
2026-05-05 12:20 44.44470 21.35277 34993 ft 474 kts 147°
2026-05-05 12:21 44.38943 21.40341 35001 ft 474 kts 147°
2026-05-05 12:21 44.33441 21.45370 35008 ft 475 kts 146°
2026-05-05 12:22 44.28051 21.50724 35010 ft 475 kts 143°
2026-05-05 12:22 44.22743 21.56103 35017 ft 475 kts 143°
2026-05-05 12:23 44.17374 21.61530 35024 ft 476 kts 143°
2026-05-05 12:23 44.12019 21.66931 35033 ft 477 kts 144°
2026-05-05 12:24 44.06643 21.72339 35051 ft 478 kts 144°
2026-05-05 12:24 44.01254 21.77745 35061 ft 478 kts 144°
2026-05-05 12:25 43.95865 21.83141 35060 ft 478 kts 144°
2026-05-05 12:25 43.90474 21.88527 35051 ft 479 kts 144°
2026-05-05 12:26 43.85053 21.93930 35052 ft 479 kts 144°
2026-05-05 12:26 43.79639 21.99314 35049 ft 480 kts 144°
2026-05-05 12:27 43.74231 22.04681 35040 ft 480 kts 144°
2026-05-05 12:27 43.68798 22.10058 35045 ft 481 kts 144°
2026-05-05 12:28 43.63380 22.15410 35041 ft 482 kts 144°
2026-05-05 12:28 43.57941 22.20770 35043 ft 483 kts 144°
2026-05-05 12:29 43.52487 22.26134 35047 ft 484 kts 144°
2026-05-05 12:29 43.46995 22.31519 35053 ft 484 kts 144°
2026-05-05 12:30 43.41526 22.36873 35056 ft 484 kts 144°
2026-05-05 12:30 43.36042 22.42229 35057 ft 485 kts 144°
2026-05-05 12:31 43.30539 22.47590 35058 ft 486 kts 144°
2026-05-05 12:31 43.25037 22.52941 35058 ft 486 kts 144°
2026-05-05 12:32 43.19561 22.58252 35062 ft 486 kts 144°
2026-05-05 12:32 43.14011 22.63625 35065 ft 487 kts 143°
2026-05-05 12:33 43.08516 22.68932 35065 ft 487 kts 144°
2026-05-05 12:33 43.02972 22.74276 35069 ft 487 kts 144°
2026-05-05 12:34 42.97448 22.79587 35064 ft 488 kts 144°
2026-05-05 12:34 42.91901 22.84880 35069 ft 488 kts 145°
2026-05-05 12:35 42.86293 22.90210 35075 ft 489 kts 144°
2026-05-05 12:35 42.80743 22.95478 35079 ft 489 kts 144°
2026-05-05 12:36 42.75148 23.00777 35080 ft 490 kts 144°
2026-05-05 12:36 42.69576 23.06044 35075 ft 490 kts 144°
2026-05-05 12:37 42.63997 23.11306 35077 ft 490 kts 144°
2026-05-05 12:37 42.58402 23.16569 35076 ft 490 kts 144°
2026-05-05 12:38 42.52821 23.21811 35084 ft 490 kts 144°
2026-05-05 12:38 42.47235 23.27045 35091 ft 490 kts 144°
2026-05-05 12:39 42.41616 23.32299 35091 ft 491 kts 144°
2026-05-05 12:39 42.35998 23.37539 35091 ft 491 kts 144°
2026-05-05 12:40 42.30381 23.42767 35084 ft 491 kts 144°
2026-05-05 12:40 42.24786 23.47963 35084 ft 491 kts 144°
2026-05-05 12:41 42.19150 23.53187 35089 ft 492 kts 144°
2026-05-05 12:41 42.13525 23.58385 35089 ft 492 kts 144°
2026-05-05 12:42 42.07873 23.63599 35092 ft 492 kts 144°
2026-05-05 12:42 42.02249 23.68780 35102 ft 492 kts 145°
2026-05-05 12:43 41.96595 23.73971 35096 ft 493 kts 145°
2026-05-05 12:43 41.90931 23.79160 35110 ft 493 kts 145°
2026-05-05 12:44 41.85254 23.84354 35106 ft 493 kts 144°
2026-05-05 12:44 41.79607 23.89510 35101 ft 494 kts 145°
2026-05-05 12:45 41.73949 23.94662 35103 ft 494 kts 145°
2026-05-05 12:45 41.68241 23.99851 35092 ft 494 kts 145°
2026-05-05 12:46 41.62569 24.04993 35085 ft 494 kts 145°
2026-05-05 12:46 41.56897 24.10125 35082 ft 495 kts 145°
2026-05-05 12:47 41.51196 24.15254 35071 ft 495 kts 145°
2026-05-05 12:47 41.45463 24.20370 35073 ft 496 kts 145°
2026-05-05 12:48 41.39744 24.25468 35068 ft 496 kts 145°
2026-05-05 12:48 41.34026 24.30558 35062 ft 496 kts 145°
2026-05-05 12:49 41.28306 24.35640 35057 ft 496 kts 145°
2026-05-05 12:49 41.22564 24.40726 35043 ft 496 kts 146°
2026-05-05 12:50 41.16600 24.45321 35034 ft 497 kts 153°
2026-05-05 12:50 41.10401 24.49291 35032 ft 497 kts 154°
2026-05-05 12:51 41.04169 24.53251 35029 ft 497 kts 154°
2026-05-05 12:51 40.97961 24.57212 35028 ft 498 kts 154°
2026-05-05 12:52 40.91688 24.61206 35026 ft 499 kts 154°
2026-05-05 12:52 40.85435 24.65179 35026 ft 499 kts 154°
2026-05-05 12:53 40.79174 24.69155 35029 ft 499 kts 154°
2026-05-05 12:53 40.72935 24.73114 35026 ft 499 kts 154°
2026-05-05 12:54 40.63595 24.79032 35028 ft 499 kts 154°
2026-05-05 12:55 40.57337 24.82977 35030 ft 500 kts 155°
2026-05-05 12:55 40.51061 24.86922 35033 ft 500 kts 155°
2026-05-05 12:56 40.44801 24.90851 35034 ft 500 kts 155°
2026-05-05 12:56 40.38544 24.94771 35034 ft 500 kts 154°
2026-05-05 12:57 40.32270 24.98693 35036 ft 501 kts 155°
2026-05-05 12:57 40.26002 25.02607 35033 ft 501 kts 155°
2026-05-05 12:58 40.19702 25.06529 35033 ft 500 kts 155°
2026-05-05 12:58 40.13443 25.10421 35037 ft 501 kts 155°
2026-05-05 12:59 40.07146 25.14329 35039 ft 501 kts 155°
2026-05-05 12:59 40.00860 25.18218 35033 ft 501 kts 155°
2026-05-05 13:00 39.91703 25.24707 35036 ft 501 kts 145°
2026-05-05 13:01 39.80945 25.36152 35035 ft 500 kts 137°
2026-05-05 13:01 39.75738 25.42099 35034 ft 500 kts 137°
2026-05-05 13:02 39.70516 25.48023 35036 ft 500 kts 137°
2026-05-05 13:02 39.65284 25.53932 35032 ft 500 kts 137°
2026-05-05 13:03 39.60023 25.59859 35032 ft 500 kts 137°
2026-05-05 13:03 39.54804 25.65730 35030 ft 500 kts 138°
2026-05-05 13:04 39.49519 25.71661 35030 ft 500 kts 138°
2026-05-05 13:04 39.44249 25.77562 35034 ft 500 kts 138°
2026-05-05 13:05 39.39016 25.83409 35033 ft 500 kts 138°
2026-05-05 13:05 39.33772 25.89261 35032 ft 499 kts 138°
2026-05-05 13:06 39.28518 25.95101 35030 ft 500 kts 139°
2026-05-05 13:06 39.23166 26.00872 35025 ft 500 kts 139°
2026-05-05 13:07 39.17839 26.06564 35024 ft 500 kts 140°
2026-05-05 13:07 39.12482 26.12292 35019 ft 500 kts 139°
2026-05-05 13:08 39.07154 26.17989 35011 ft 500 kts 139°
2026-05-05 13:08 39.01804 26.23700 35013 ft 500 kts 139°
2026-05-05 13:09 38.96441 26.29413 35013 ft 500 kts 139°
2026-05-05 13:09 38.91092 26.35102 35010 ft 499 kts 139°
2026-05-05 13:10 38.85754 26.40762 35013 ft 499 kts 139°
2026-05-05 13:10 38.80435 26.46498 35015 ft 498 kts 137°
2026-05-05 13:11 38.75252 26.52340 35009 ft 498 kts 137°
2026-05-05 13:11 38.70063 26.58178 35007 ft 498 kts 137°
2026-05-05 13:12 38.64836 26.64025 35006 ft 498 kts 137°
2026-05-05 13:12 38.59649 26.69811 35004 ft 498 kts 138°
2026-05-05 13:13 38.54397 26.75651 35002 ft 498 kts 138°
2026-05-05 13:13 38.49178 26.81444 34999 ft 498 kts 138°
2026-05-05 13:14 38.43957 26.87231 35000 ft 498 kts 138°
2026-05-05 13:14 38.38726 26.93015 35010 ft 498 kts 138°
2026-05-05 13:15 38.33308 26.98452 35015 ft 498 kts 145°
2026-05-05 13:15 38.27379 27.03019 35027 ft 498 kts 153°
2026-05-05 13:16 38.21117 27.06669 35029 ft 498 kts 158°
2026-05-05 13:16 38.14748 27.10157 35024 ft 497 kts 158°
2026-05-05 13:17 38.08419 27.13640 35020 ft 498 kts 158°
2026-05-05 13:17 38.02083 27.17136 35021 ft 498 kts 158°
2026-05-05 13:18 37.95725 27.20642 35017 ft 498 kts 158°
2026-05-05 13:18 37.89361 27.24147 35013 ft 498 kts 158°
2026-05-05 13:19 37.83001 27.27641 35010 ft 497 kts 158°
2026-05-05 13:19 37.76660 27.31117 35005 ft 497 kts 158°
2026-05-05 13:20 37.70331 27.34583 35003 ft 498 kts 158°
2026-05-05 13:20 37.63990 27.38048 35001 ft 498 kts 158°
2026-05-05 13:21 37.57680 27.41607 34997 ft 498 kts 156°
2026-05-05 13:21 37.51391 27.45249 34993 ft 498 kts 156°
2026-05-05 13:22 37.45031 27.48729 34990 ft 498 kts 159°
2026-05-05 13:22 37.38638 27.52035 34990 ft 497 kts 159°
2026-05-05 13:23 37.32257 27.55360 34993 ft 497 kts 159°
2026-05-05 13:23 37.25913 27.58705 34995 ft 497 kts 158°
2026-05-05 13:24 37.19557 27.62159 34995 ft 497 kts 158°
2026-05-05 13:24 37.13170 27.65628 34992 ft 497 kts 159°
2026-05-05 13:25 37.06804 27.69074 34992 ft 497 kts 158°
2026-05-05 13:25 37.00465 27.72493 34985 ft 497 kts 159°
2026-05-05 13:26 36.94112 27.75915 34972 ft 497 kts 159°
2026-05-05 13:26 36.87780 27.79319 34967 ft 497 kts 159°
2026-05-05 13:27 36.81411 27.82738 34964 ft 497 kts 159°
2026-05-05 13:27 36.75101 27.86119 34966 ft 497 kts 159°
2026-05-05 13:28 36.68731 27.89511 34961 ft 496 kts 159°
2026-05-05 13:28 36.62373 27.92820 34968 ft 496 kts 159°
2026-05-05 13:29 36.56039 27.96110 34969 ft 496 kts 159°
2026-05-05 13:29 36.49644 27.99431 34965 ft 496 kts 159°
2026-05-05 13:30 36.43331 28.02924 34971 ft 497 kts 157°
2026-05-05 13:30 36.37243 28.06913 34970 ft 498 kts 149°
2026-05-05 13:31 36.31637 28.11922 34974 ft 499 kts 140°
2026-05-05 13:31 36.26638 28.17893 34978 ft 499 kts 132°
2026-05-05 13:32 36.21976 28.24220 34976 ft 499 kts 131°
2026-05-05 13:32 36.17287 28.30551 34973 ft 499 kts 132°
2026-05-05 13:33 36.12588 28.36833 34974 ft 498 kts 132°
2026-05-05 13:33 36.07890 28.43087 34966 ft 498 kts 132°
2026-05-05 13:34 36.03160 28.49355 34971 ft 498 kts 133°
2026-05-05 13:34 35.98439 28.55602 34966 ft 499 kts 133°
2026-05-05 13:35 35.93723 28.61835 34974 ft 498 kts 133°
2026-05-05 13:35 35.88966 28.68095 34965 ft 498 kts 134°
2026-05-05 13:36 35.84024 28.74031 34970 ft 498 kts 137°
2026-05-05 13:36 35.79036 28.79899 34966 ft 498 kts 137°
2026-05-05 13:37 35.74017 28.85803 34973 ft 497 kts 137°
2026-05-05 13:37 35.69038 28.91656 34960 ft 497 kts 137°
2026-05-05 13:38 35.64055 28.97507 34965 ft 497 kts 137°
2026-05-05 13:38 35.59033 29.03392 34956 ft 498 kts 137°
2026-05-05 13:39 35.54031 29.09243 34969 ft 498 kts 137°
2026-05-05 13:39 35.49022 29.15093 34962 ft 498 kts 137°
2026-05-05 13:40 35.44016 29.20928 34970 ft 498 kts 137°
2026-05-05 13:40 35.39022 29.26739 34965 ft 498 kts 137°
2026-05-05 13:41 35.33998 29.32573 34967 ft 498 kts 137°
2026-05-05 13:41 35.28972 29.38399 34978 ft 498 kts 137°
2026-05-05 13:42 35.23952 29.44210 34967 ft 498 kts 137°
2026-05-05 13:42 35.18928 29.50014 34974 ft 498 kts 137°
2026-05-05 13:43 35.13904 29.55808 34981 ft 498 kts 137°
2026-05-05 13:43 35.08862 29.61615 34989 ft 498 kts 137°
2026-05-05 13:44 35.03863 29.67363 34984 ft 497 kts 138°
2026-05-05 13:44 34.98810 29.73157 34985 ft 497 kts 138°
2026-05-05 13:45 34.93817 29.78944 34994 ft 498 kts 137°
2026-05-05 13:45 34.88799 29.84826 34996 ft 498 kts 137°
2026-05-05 13:46 34.83823 29.90634 34995 ft 498 kts 137°
2026-05-05 13:46 34.78713 29.96278 34993 ft 497 kts 143°
2026-05-05 13:47 34.73112 30.01154 34996 ft 494 kts 151°
2026-05-05 13:47 34.67092 30.05119 34999 ft 491 kts 158°
2026-05-05 13:48 34.60911 30.08692 34999 ft 492 kts 158°
2026-05-05 13:48 34.54742 30.12262 34994 ft 492 kts 158°
2026-05-05 13:49 34.48556 30.15855 34988 ft 492 kts 158°
2026-05-05 13:49 34.42384 30.19442 34990 ft 492 kts 158°
2026-05-05 13:50 34.36213 30.23021 34986 ft 491 kts 158°
2026-05-05 13:50 34.30053 30.26588 34986 ft 492 kts 158°
2026-05-05 13:51 34.23915 30.30134 34987 ft 492 kts 158°
2026-05-05 13:51 34.17716 30.33713 34987 ft 492 kts 158°
2026-05-05 13:52 34.11562 30.37261 34988 ft 492 kts 159°
2026-05-05 13:52 34.05370 30.40826 34990 ft 491 kts 159°
2026-05-05 13:53 33.99240 30.44347 34989 ft 491 kts 159°
2026-05-05 13:53 33.93047 30.47897 34990 ft 492 kts 159°
2026-05-05 13:54 33.86889 30.51423 34990 ft 491 kts 159°
2026-05-05 13:54 33.80705 30.54959 34995 ft 493 kts 159°
2026-05-05 13:55 33.74507 30.58496 34996 ft 492 kts 159°
2026-05-05 13:55 33.68348 30.62008 34998 ft 492 kts 159°
2026-05-05 13:56 33.62172 30.65522 34999 ft 492 kts 160°
2026-05-05 13:56 33.55960 30.69051 34999 ft 492 kts 160°
2026-05-05 13:57 33.49786 30.72553 35001 ft 492 kts 160°
2026-05-05 13:57 33.43603 30.76053 35004 ft 492 kts 160°
2026-05-05 13:58 33.37410 30.79555 35004 ft 492 kts 160°
2026-05-05 13:58 33.31247 30.83037 35005 ft 492 kts 160°
2026-05-05 13:59 33.21964 30.88269 35006 ft 492 kts 160°
2026-05-05 14:00 33.13633 30.92594 35011 ft 487 kts 167°
2026-05-05 14:00 33.06063 30.95103 35008 ft 479 kts 175°
2026-05-05 14:01 32.99543 30.96201 35007 ft 473 kts 182°
2026-05-05 14:01 32.92973 30.96913 35013 ft 473 kts 182°
2026-05-05 14:02 32.86408 30.97631 35017 ft 473 kts 182°
2026-05-05 14:02 32.79863 30.98358 35026 ft 474 kts 182°
2026-05-05 14:03 32.73284 30.99091 35031 ft 473 kts 182°
2026-05-05 14:03 32.66723 30.99823 35033 ft 472 kts 182°
2026-05-05 14:04 32.60185 31.00550 35026 ft 473 kts 182°
2026-05-05 14:04 32.53655 31.01274 35035 ft 473 kts 182°
2026-05-05 14:05 32.47092 31.02003 35029 ft 472 kts 182°
2026-05-05 14:05 32.40583 31.02724 35032 ft 472 kts 182°
2026-05-05 14:06 32.34018 31.03451 35029 ft 471 kts 182°
2026-05-05 14:06 32.27481 31.04172 35035 ft 471 kts 183°
2026-05-05 14:07 32.20987 31.04888 35031 ft 470 kts 182°
2026-05-05 14:07 32.14453 31.05607 35029 ft 471 kts 182°
2026-05-05 14:08 32.07908 31.06327 35031 ft 471 kts 182°
2026-05-05 14:08 32.01414 31.07040 35031 ft 470 kts 183°
2026-05-05 14:09 31.94906 31.07742 35034 ft 468 kts 183°
2026-05-05 14:09 31.88417 31.08436 35026 ft 469 kts 183°
2026-05-05 14:10 31.81905 31.09135 35033 ft 469 kts 183°
2026-05-05 14:10 31.75421 31.09832 35034 ft 468 kts 183°
2026-05-05 14:11 31.68892 31.10532 35034 ft 468 kts 183°
2026-05-05 14:11 31.62419 31.11225 35033 ft 467 kts 183°
2026-05-05 14:12 31.55948 31.11917 35030 ft 466 kts 183°
2026-05-05 14:12 31.49496 31.12871 35032 ft 470 kts 179°
2026-05-05 14:13 31.43053 31.14082 35034 ft 470 kts 179°
2026-05-05 14:13 31.36603 31.15297 35029 ft 470 kts 179°
2026-05-05 14:14 31.30127 31.16511 35034 ft 469 kts 179°
2026-05-05 14:14 31.23688 31.17715 35034 ft 469 kts 179°
2026-05-05 14:15 31.17242 31.18915 35033 ft 469 kts 179°
2026-05-05 14:15 31.10788 31.20115 35033 ft 468 kts 179°
2026-05-05 14:16 31.04371 31.21309 35107 ft 466 kts 179°
2026-05-05 14:16 30.97956 31.22500 35041 ft 465 kts 179°
2026-05-05 14:17 30.91584 31.23681 35026 ft 465 kts 179°
2026-05-05 14:17 30.85153 31.24873 35027 ft 465 kts 179°
2026-05-05 14:18 30.78787 31.26051 35022 ft 465 kts 179°
2026-05-05 14:18 30.72374 31.27235 35023 ft 464 kts 179°
2026-05-05 14:19 30.66007 31.28412 35020 ft 463 kts 179°
2026-05-05 14:19 30.59647 31.29584 35018 ft 462 kts 179°
2026-05-05 14:20 30.53289 31.30754 35020 ft 463 kts 179°
2026-05-05 14:20 30.46901 31.31928 35015 ft 462 kts 179°
2026-05-05 14:21 30.40565 31.33092 35015 ft 462 kts 179°
2026-05-05 14:21 30.34213 31.34257 35018 ft 461 kts 179°
2026-05-05 14:22 30.27851 31.35426 35018 ft 461 kts 179°
2026-05-05 14:22 30.21527 31.36584 35020 ft 460 kts 179°
2026-05-05 14:23 30.15170 31.37969 35013 ft 467 kts 173°
2026-05-05 14:23 30.08967 31.40434 35020 ft 478 kts 163°
2026-05-05 14:24 30.03072 31.44104 35023 ft 487 kts 154°
2026-05-05 14:24 29.97526 31.48726 35023 ft 491 kts 150°
2026-05-05 14:25 29.92066 31.53434 35031 ft 491 kts 150°
2026-05-05 14:25 29.86566 31.58145 35025 ft 491 kts 150°
2026-05-05 14:26 29.81112 31.62793 35028 ft 491 kts 150°
2026-05-05 14:26 29.75584 31.67490 35026 ft 491 kts 150°
2026-05-05 14:27 29.70114 31.72134 35030 ft 490 kts 150°
2026-05-05 14:27 29.64612 31.76793 35035 ft 489 kts 150°
2026-05-05 14:28 29.59137 31.81423 35035 ft 489 kts 150°
2026-05-05 14:28 29.53650 31.86059 35034 ft 489 kts 150°
2026-05-05 14:29 29.48200 31.90657 35040 ft 489 kts 150°
2026-05-05 14:29 29.42710 31.95282 35045 ft 490 kts 150°
2026-05-05 14:30 29.37202 31.99916 35046 ft 490 kts 151°
2026-05-05 14:30 29.31730 32.04514 35050 ft 489 kts 150°
2026-05-05 14:31 29.26265 32.09099 35049 ft 489 kts 150°
2026-05-05 14:31 29.20769 32.13705 35047 ft 488 kts 150°
2026-05-05 14:32 29.15278 32.18298 35049 ft 488 kts 150°
2026-05-05 14:32 29.09812 32.22865 35039 ft 488 kts 150°
2026-05-05 14:33 29.04319 32.27448 35041 ft 489 kts 150°
2026-05-05 14:33 28.98823 32.32031 35026 ft 488 kts 150°
2026-05-05 14:34 28.93327 32.36607 35015 ft 487 kts 150°
2026-05-05 14:34 28.87860 32.41151 35019 ft 486 kts 151°
2026-05-05 14:35 28.82348 32.45725 35021 ft 487 kts 151°
2026-05-05 14:35 28.76912 32.50230 35020 ft 486 kts 151°
2026-05-05 14:36 28.71438 32.54761 35015 ft 486 kts 151°
2026-05-05 14:36 28.65973 32.59279 35019 ft 486 kts 150°
2026-05-05 14:37 28.60481 32.63817 35015 ft 484 kts 151°
2026-05-05 14:37 28.55050 32.68296 35014 ft 484 kts 151°
2026-05-05 14:38 28.49578 32.72800 35011 ft 484 kts 152°
2026-05-05 14:38 28.44139 32.77276 35001 ft 483 kts 152°
2026-05-05 14:39 28.38699 32.81745 35001 ft 483 kts 152°
2026-05-05 14:39 28.33254 32.86210 34999 ft 483 kts 152°
2026-05-05 14:40 28.27804 32.90675 34995 ft 483 kts 152°
2026-05-05 14:40 28.22352 32.95139 34999 ft 482 kts 152°
2026-05-05 14:41 28.16910 32.99587 34992 ft 482 kts 152°
2026-05-05 14:41 28.11501 33.04004 34990 ft 481 kts 152°
2026-05-05 14:42 28.06057 33.08442 34980 ft 481 kts 152°
2026-05-05 14:42 28.00644 33.12851 34983 ft 480 kts 152°
2026-05-05 14:43 27.95213 33.17260 34982 ft 479 kts 152°
2026-05-05 14:43 27.89777 33.21666 34967 ft 480 kts 152°
2026-05-05 14:44 27.84358 33.26060 34960 ft 481 kts 152°
2026-05-05 14:44 27.78919 33.30467 34970 ft 480 kts 152°
2026-05-05 14:45 27.73515 33.34843 34946 ft 479 kts 152°
2026-05-05 14:45 27.68085 33.39230 34949 ft 479 kts 152°
2026-05-05 14:46 27.62640 33.43630 34937 ft 478 kts 152°
2026-05-05 14:46 27.57256 33.47972 34948 ft 477 kts 152°
2026-05-05 14:47 27.51973 33.52578 34946 ft 486 kts 143°
2026-05-05 14:47 27.47502 33.58344 34949 ft 495 kts 134°
2026-05-05 14:48 27.43293 33.64467 34929 ft 496 kts 134°
2026-05-05 14:48 27.39053 33.70615 34928 ft 494 kts 135°
2026-05-05 14:49 27.34833 33.76676 34924 ft 494 kts 135°
2026-05-05 14:49 27.30588 33.82753 34910 ft 493 kts 135°
2026-05-05 14:50 27.26360 33.88795 34916 ft 493 kts 135°
2026-05-05 14:50 27.22121 33.94848 34652 ft 492 kts 135°
2026-05-05 14:51 27.20000 33.97866 33436 ft 497 kts 134°
2026-05-05 14:51 27.17888 34.00866 31960 ft 500 kts 134°
2026-05-05 14:51 27.15747 34.03910 30475 ft 500 kts 134°
2026-05-05 14:51 27.13619 34.06939 28983 ft 499 kts 134°
2026-05-05 14:52 27.11494 34.09965 27456 ft 496 kts 133°
2026-05-05 14:52 27.09383 34.12969 25935 ft 491 kts 133°
2026-05-05 14:52 27.07290 34.15945 24419 ft 486 kts 133°
2026-05-05 14:52 27.05211 34.18848 22910 ft 478 kts 136°
2026-05-05 14:53 27.02729 34.21179 21365 ft 457 kts 156°
2026-05-05 14:53 26.99851 34.22333 19873 ft 436 kts 177°
2026-05-05 14:53 26.96944 34.22255 18396 ft 416 kts 198°
2026-05-05 14:53 26.94386 34.21004 16932 ft 399 kts 220°
2026-05-05 14:54 26.92545 34.18795 15475 ft 385 kts 242°
2026-05-05 14:54 26.91718 34.16057 14032 ft 377 kts 265°
2026-05-05 14:54 26.91986 34.13238 12593 ft 373 kts 288°
2026-05-05 14:54 26.93298 34.10793 11140 ft 371 kts 310°
2026-05-05 14:55 26.95010 34.08722 9700 ft 365 kts 308°
2026-05-05 14:55 26.96598 34.06538 8259 ft 360 kts 308°
2026-05-05 14:55 26.97866 34.04225 6811 ft 354 kts 290°
2026-05-05 14:55 26.98475 34.01611 5355 ft 349 kts 282°
2026-05-05 14:56 26.98926 33.98996 4089 ft 340 kts 283°
2026-05-05 14:56 26.99403 33.96481 3178 ft 322 kts 285°
2026-05-05 14:56 26.99908 33.94127 2543 ft 300 kts 288°
2026-05-05 14:56 27.00408 33.91965 2192 ft 275 kts 289°
2026-05-05 14:57 27.00875 33.90018 2129 ft 245 kts 289°
2026-05-05 14:57 27.01302 33.88256 2128 ft 226 kts 290°
2026-05-05 14:57 27.01719 33.86587 2127 ft 224 kts 293°
2026-05-05 14:57 27.02513 33.85208 2103 ft 199 kts 322°
2026-05-05 14:58 27.03628 33.84453 2142 ft 178 kts 337°
2026-05-05 14:58 27.04734 33.84008 2194 ft 158 kts 342°
2026-05-05 14:58 27.05735 33.83685 2059 ft 139 kts 343°
2026-05-05 14:58 27.06638 33.83415 1914 ft 131 kts 344°
2026-05-05 14:59 27.07520 33.83155 1749 ft 130 kts 343°
2026-05-05 14:59 27.08395 33.82897 1578 ft 130 kts 344°
2026-05-05 14:59 27.09276 33.82637 1409 ft 129 kts 344°
2026-05-05 14:59 27.10141 33.82381 1242 ft 129 kts 344°
2026-05-05 15:00 27.11018 33.82121 1074 ft 128 kts 344°
2026-05-05 15:00 27.11592 33.81949 957 ft 128 kts 345°
2026-05-05 15:00 27.12747 33.81610 714 ft 128 kts 346°
2026-05-05 15:00 27.13614 33.81371 550 ft 127 kts 347°
2026-05-05 15:01 27.14466 33.81119 383 ft 127 kts 344°
2026-05-05 15:01 27.15309 33.80842 216 ft 124 kts 346°
2026-05-05 15:01 27.16140 33.80591 90 ft 122 kts 346°
2026-05-05 15:01 27.16921 33.80369 60 ft 97 kts 347°
2026-05-05 15:02 27.17416 33.80224 60 ft 52 kts 347°
2026-05-05 15:02 27.17732 33.80135 60 ft 41 kts 346°
2026-05-05 15:02 27.17977 33.80062 59 ft 30 kts 345°
2026-05-05 15:02 27.18163 33.80008 59 ft 23 kts 345°
2026-05-05 15:03 27.18300 33.79967 59 ft 19 kts 345°
2026-05-05 15:03 27.18450 33.79973 59 ft 21 kts 58°
2026-05-05 15:03 27.18440 33.80092 59 ft 13 kts 148°
2026-05-05 15:03 27.18321 33.80134 59 ft 23 kts 165°
2026-05-05 15:04 27.18190 33.80176 59 ft 12 kts 143°
2026-05-05 15:04 27.18181 33.80249 59 ft 8 kts 75°
2026-05-05 15:04 27.18195 33.80302 59 ft 15 kts 74°
2026-05-05 15:04 27.18180 33.80420 59 ft 19 kts 145°
2026-05-05 15:05 27.18094 33.80529 59 ft 4 kts 76°
2026-05-05 15:05 27.18100 33.80552 59 ft 2 kts 74°
2026-05-05 15:05 27.18101 33.80557 59 ft 0 kts 74°
2026-05-05 15:06 27.18101 33.80558 59 ft 0 kts 74°